Terminal Aerodrome Forecast
Issued by NWS

Home | Current Version | Previous Version | Text Only | Print | Product List | Glossary On
Versions: 1 2 3 4 5 6 7 8 9 10 11 12 13
000
FTUS42 TJSJ 062340
TAFJMZ
TAF
TJMZ 062340Z 0700/0724 08009KT P6SM FEW030
     FM070230 10005KT P6SM FEW030
     FM071330 09012KT P6SM FEW030 SCT050
     FM071750 29011KT P6SM VCSH SCT025 SCT040
      AMD NOT SKED TIL 071500=

USA.gov is the U.S. government's official web portal to all federal, state and local government web resources and services.